Location: Unspecified
(38.9820°N, 94.4650°W)
Time: 03:48:50
(UTC-05:00)

CZ-3 Stage 3 - Visible Passes

Search period start: 31 August 2015 00:00
Search period end: 10 September 2015 00:00
Orbit: 439 x 34786 km, 30.9° (Epoch: 29 August)

Date Brightness Start Highest point End Pass type
(mag) Time Alt. Az. Time Alt. Az. Time Alt. Az.
31 Aug 6.5 03:26:01 39° WSW 03:48:24 77° S 12:31:39 10° S visible
31 Aug 6.6 23:58:53 37° ESE 23:58:53 37° ESE 08:39:17 10° SE visible
03 Sep 6.5 03:21:05 40° WSW 03:43:31 77° S 12:25:06 10° S visible
03 Sep 6.6 23:53:57 38° ESE 23:53:57 38° ESE 08:33:49 10° SE visible
06 Sep 6.5 03:16:11 42° WSW 03:38:41 77° S 12:18:27 10° S visible
06 Sep 6.6 23:49:05 40° ESE 23:49:05 40° ESE 08:28:19 10° SE visible
09 Sep 6.6 03:11:21 43° WSW 03:33:53 77° S 12:11:42 10° S visible
